Simultaneous Nadir Overpasses (SNOs) Predictions

Prediction of SNOs between METOP-A and TERRA Satellite Orbit:

Table of predicted SNOs for the next 14.0 days since TLE Epoch: 10/15/2016
Index Date (METOP-A) Time (METOP-A) Lat,Lon (METOP-A) SZA (METOP-A ) Date (TERRA) Time (TERRA) Lat,Lon (TERRA) SZA (TERRA ) Distance(km) Time Diff (sec)
1 10/15/2016 07:30:16 -81.29, -65.72 86.92 10/15/2016 07:30:27 -81.28, -65.82 86.93 1.95 11
2 10/15/2016 08:20:56 81.30, 102.08 93.15 10/15/2016 08:19:53 81.29, 101.90 93.10 3.28 63
3 10/18/2016 03:04:37 -81.29, 0.93 85.85 10/18/2016 03:04:40 -81.29, 0.75 85.88 3.08 3
4 10/18/2016 03:55:18 81.29, 168.31 94.17 10/18/2016 03:54:06 81.29, 168.45 94.15 2.37 72
5 10/20/2016 21:48:20 81.29,-100.40 95.11 10/20/2016 21:49:27 81.29,-100.37 95.15 0.89 67
6 10/20/2016 22:39:00 -81.29, 67.15 84.86 10/20/2016 22:38:54 -81.29, 67.25 84.85 1.73 6
7 10/23/2016 17:22:42 81.29, -33.85 96.12 10/23/2016 17:23:41 81.29, -33.94 96.14 1.55 59
8 10/23/2016 18:13:22 -81.29, 133.72 83.84 10/23/2016 18:13:08 -81.29, 133.69 83.85 0.60 14
9 10/26/2016 12:57:04 81.29, 32.26 97.05 10/26/2016 12:57:54 81.29, 32.42 97.10 2.70 50




NCC Satellite Simultaneous Nadir Overpasses (SNOs) Prediction Service
